DateTimeUTC,F1_A11,F1_S11,BsB_S11,BsG_S11,BsR_S11,BbsB_S11,BbsG_S11,BbsR_S11,BaB_A11,BaG_A11,BaR_A11,Tu_S11,T_S11,Uu_S11,U_S11,P_S11,T1_A11
2021-07-28T07:00:00Z,00000200,20000000,,,,,,,-000.18,-000.13,0000.05,18.9,25.4,15.4,10.3,0687.0,31.1
2021-07-28T07:01:00Z,00000200,20000000,,,,,,,-000.09,0000.36,-000.23,18.9,25.4,15.3,10.3,0687.0,31.0
2021-07-28T07:02:00Z,00000200,20000000,,,,,,,0000.16,-000.30,0000.25,18.9,25.4,15.3,10.3,0687.0,31.1
2021-07-28T07:03:00Z,00000200,60000000,,,,,,,0000.05,-000.09,-000.08,18.9,25.4,15.3,10.3,0687.0,31.1
2021-07-28T07:04:00Z,00000200,40000000,0001.21,0000.60,-000.30,0000.57,0000.21,0000.09,0000.20,0000.40,0000.38,19.0,25.2,15.3,10.5,0687.9,31.0
2021-07-28T07:05:00Z,00000200,00000000,0000.90,0000.54,0000.05,0000.52,0000.02,0000.17,-000.19,0000.04,0000.02,19.1,25.2,15.3,10.5,0687.9,31.1
2021-07-28T07:06:00Z,00000200,00000000,0001.34,0000.78,0000.36,0000.32,0000.10,0000.00,0000.25,-000.01,-000.03,19.0,25.2,15.3,10.5,0687.9,31.1
2021-07-28T07:07:00Z,00000200,00000000,0001.08,0000.84,0000.28,0000.27,-000.15,-000.10,0000.15,0000.35,0000.10,19.0,25.2,15.5,10.6,0688.0,31.1
2021-07-28T07:08:00Z,00000200,00000000,0001.08,0000.51,0000.40,0000.15,0000.09,0000.16,-000.21,-000.24,0000.05,19.0,25.2,15.5,10.7,0688.0,31.1
2021-07-28T07:09:00Z,00000200,00000000,0000.90,0000.75,0000.18,0000.60,0000.19,0000.28,0000.45,0000.61,0000.09,19.0,25.2,15.6,10.7,0687.9,31.1
2021-07-28T07:10:00Z,00000200,00000000,0001.04,0000.78,0000.29,0000.50,-000.13,0000.25,0000.37,-000.21,0000.20,19.0,25.2,15.6,10.7,0688.0,31.1
2021-07-28T07:11:00Z,00000200,00000000,0000.77,0001.02,0000.51,-000.03,-000.02,0000.05,-000.19,0000.08,-000.29,19.0,25.2,15.7,10.8,0688.0,31.1
2021-07-28T07:12:00Z,00000200,00000000,0000.99,0000.60,0000.35,0000.34,0000.29,0000.10,0000.17,0000.24,0000.73,19.0,25.2,15.7,10.8,0688.1,31.1
2021-07-28T07:13:00Z,00000200,00000000,0001.01,0000.80,0000.36,-000.01,0000.07,0000.01,-000.03,0000.29,-000.31,19.0,25.1,15.7,10.8,0688.1,31.1
2021-07-28T07:14:00Z,00000200,00000000,0000.64,0000.45,0000.22,0000.40,0000.08,0000.11,0000.48,-000.37,0000.11,19.0,25.1,15.7,10.8,0688.1,31.1
2021-07-28T07:15:00Z,00000200,00000000,0000.56,0000.58,0000.23,0000.44,-000.16,-000.10,-000.55,0000.24,-000.18,19.0,25.1,15.9,10.9,0688.1,31.1
2021-07-28T07:16:00Z,00000200,00000000,0000.87,0000.72,0000.27,0000.25,0000.05,0000.15,0000.67,0000.17,0000.19,19.0,25.1,15.8,10.8,0688.1,31.1
2021-07-28T07:17:00Z,00000200,00000000,0000.79,0000.76,0000.35,0000.85,-000.01,0000.21,0000.32,0000.21,0000.18,19.0,25.1,15.8,10.9,0688.1,31.1
2021-07-28T07:18:00Z,00000200,00000000,0000.94,0000.67,0000.28,-000.02,-000.08,0000.02,-000.19,0000.07,0000.31,19.0,25.1,15.8,10.9,0688.0,31.1
2021-07-28T07:19:00Z,00000200,00000000,0000.84,0000.63,0000.61,0000.67,-000.01,0000.39,0000.11,-000.31,-000.04,19.0,25.1,15.7,10.8,0688.1,31.1
2021-07-28T07:20:00Z,00000200,00000000,0001.79,0000.71,0000.73,0000.34,-000.12,-000.01,0000.10,0000.28,-000.33,19.0,25.1,15.9,11.0,0688.1,31.1
2021-07-28T07:21:00Z,00000200,00000000,0001.67,0000.96,0000.26,0000.76,-000.08,0000.21,0000.13,-000.17,-000.02,19.0,25.1,15.8,10.9,0688.1,31.1
2021-07-28T07:22:00Z,00000200,00000000,0001.56,0000.71,0000.40,0000.23,0000.05,0000.44,-000.25,0000.45,0000.44,19.0,25.1,15.8,10.9,0688.1,31.1
2021-07-28T07:23:00Z,00000200,00000000,0001.81,0001.08,0000.37,0000.93,0000.08,0000.16,0000.60,0000.12,-000.23,19.0,25.1,15.9,10.9,0688.1,31.1
2021-07-28T07:24:00Z,00000200,00000000,0001.61,0001.08,0000.14,0000.28,0000.16,-000.12,0000.09,-000.11,0000.17,19.0,25.1,15.8,10.9,0688.1,31.1
2021-07-28T07:25:00Z,00000200,00000000,0001.69,0000.62,0000.64,0000.71,0000.11,0000.23,0000.12,0000.32,0000.21,19.0,25.1,15.7,10.8,0688.1,31.1
2021-07-28T07:26:00Z,00000200,00000000,0001.62,0001.26,0000.63,0000.18,0000.28,0000.46,0000.09,0000.41,-000.20,19.0,25.1,15.8,10.9,0688.1,31.1
2021-07-28T07:27:00Z,00000200,00000000,0001.79,0001.36,0000.55,-000.33,0000.12,0000.25,-000.00,-000.25,0000.40,19.1,25.1,15.7,10.9,0688.1,31.1
2021-07-28T07:28:00Z,00000200,00000000,0001.99,0001.46,0000.44,0000.74,0000.24,0000.24,0000.53,0000.56,0000.05,19.0,25.1,15.8,10.9,0688.1,31.1
2021-07-28T07:29:00Z,00000200,00000000,0001.67,0001.26,0000.58,0000.32,0000.11,-000.12,0000.08,-000.00,0000.44,19.0,25.1,15.8,10.9,0688.1,31.1
2021-07-28T07:30:00Z,00000200,00000000,0001.00,0001.21,0000.87,0000.48,-000.15,0000.02,0000.27,0000.15,0000.13,19.1,25.1,15.7,10.8,0688.1,31.1
2021-07-28T07:31:00Z,00000200,00000000,0002.66,0001.30,0000.85,0000.48,0000.25,0000.36,0000.12,0000.08,0000.44,19.0,25.1,15.8,10.9,0688.1,31.1
2021-07-28T07:32:00Z,00000200,00000000,0001.06,0001.25,0000.70,0000.75,-000.12,0000.39,0000.45,0000.51,-000.23,19.0,25.1,15.8,10.9,0688.1,31.1
2021-07-28T07:33:00Z,00000200,00000000,0001.35,0001.24,0000.58,0000.29,0000.01,0000.55,-000.02,-000.18,0000.34,19.1,25.1,15.8,10.9,0688.1,31.1
2021-07-28T07:34:00Z,00000200,00000000,0001.10,0001.35,0000.71,0000.47,-000.13,0000.15,0000.40,0000.56,-000.14,19.1,25.1,15.8,10.9,0688.1,31.1
2021-07-28T07:35:00Z,00000200,00000000,0001.49,0000.91,0000.84,0000.95,0000.04,0000.75,-000.17,-000.07,0000.29,19.1,25.1,15.9,11.0,0688.1,31.1
2021-07-28T07:36:00Z,00000200,00000000,0001.40,0000.83,0000.39,0000.44,-000.03,-000.05,0000.11,0000.17,-000.06,19.0,25.1,15.8,10.9,0688.1,31.1
2021-07-28T07:37:00Z,00000200,00000000,0001.82,0001.17,0001.01,0000.47,0000.09,0000.11,0000.48,0000.24,0000.35,19.1,25.1,15.8,10.9,0688.2,31.1
2021-07-28T07:38:00Z,00000200,00000000,0001.11,0001.19,0000.69,0000.48,-000.01,0000.22,0000.27,-000.05,-000.00,19.0,25.1,15.9,11.0,0688.1,31.1
2021-07-28T07:39:00Z,00000200,00000000,0002.10,0000.89,0000.86,0000.66,0000.37,0000.33,-000.01,0000.27,0000.30,19.1,25.1,15.9,11.0,0688.1,31.1
2021-07-28T07:40:00Z,00000200,00000000,0001.31,0001.25,0000.61,0000.71,0000.22,0000.02,0000.59,0000.24,0000.40,19.1,25.1,15.9,11.0,0688.1,31.1
2021-07-28T07:41:00Z,00000200,00000000,0002.01,0000.95,0000.41,-000.07,0000.30,0000.16,-000.14,0000.30,-000.24,19.1,25.1,16.0,11.0,0688.1,31.1
2021-07-28T07:42:00Z,00000200,00000000,0001.61,0001.12,0000.84,0000.53,0000.35,0000.13,0000.31,0000.18,0000.34,19.1,25.1,15.9,11.0,0688.1,31.1
2021-07-28T07:43:00Z,00000200,00000000,0001.75,0001.47,0000.50,0000.44,-000.04,0000.24,0000.00,-000.00,-000.15,19.1,25.1,16.0,11.0,0688.0,31.1
2021-07-28T07:44:00Z,00000200,00000000,0001.94,0001.50,0000.62,0000.19,0000.11,0000.49,0000.14,0000.19,0000.24,19.1,25.1,16.0,11.0,0688.0,31.1
2021-07-28T07:45:00Z,00000200,00000000,0003.38,0001.43,0000.85,0000.28,0000.08,0000.20,0000.41,0000.36,0000.24,19.1,25.1,15.9,11.0,0688.0,31.1
2021-07-28T07:46:00Z,00000200,00000000,0002.35,0001.37,0000.87,0000.51,0000.33,0000.32,-000.09,0000.33,0000.16,19.1,25.1,16.0,11.1,0688.0,31.1
2021-07-28T07:47:00Z,00000200,00000000,0001.94,0001.60,0000.73,0000.23,0000.01,0000.26,0000.38,0000.14,0000.18,19.1,25.1,15.9,11.0,0688.0,31.1
2021-07-28T07:48:00Z,00000200,00000000,0002.07,0001.41,0000.84,0000.37,-000.06,0000.04,0000.30,-000.07,0000.53,19.1,25.1,15.9,11.0,0688.0,31.1
2021-07-28T07:49:00Z,00000200,00000000,0001.88,0001.82,0000.72,0000.16,0000.36,0000.20,0000.73,0000.51,0000.14,19.1,25.1,16.0,11.1,0688.0,31.1
2021-07-28T07:50:00Z,00000200,00000000,0002.26,0001.40,0000.79,0000.73,0000.04,0000.31,-000.09,0000.33,-000.01,19.1,25.1,16.0,11.0,0688.0,31.1
2021-07-28T07:51:00Z,00000200,00000000,0001.53,0001.52,0000.78,0000.46,-000.15,0000.34,0000.26,0000.00,0000.19,19.1,25.1,16.0,11.0,0688.0,31.1
2021-07-28T07:52:00Z,00000200,00000000,0002.54,0001.56,0000.72,0000.65,0000.45,0000.37,0000.47,0000.52,0000.51,19.1,25.1,15.9,11.0,0688.0,31.1
2021-07-28T07:53:00Z,00000200,00000000,0002.26,0001.66,0000.94,0000.13,0000.18,0000.28,0000.33,0000.23,0000.10,19.1,25.1,16.0,11.0,0688.0,31.1
2021-07-28T07:54:00Z,00000200,00000000,0002.52,0001.61,0001.19,0000.08,-000.06,0000.08,0000.05,0000.13,0000.14,19.1,25.1,16.0,11.0,0688.0,31.1
2021-07-28T07:55:00Z,00000200,00000000,0001.30,0001.41,0001.30,0000.38,-000.01,0000.18,0000.44,0000.18,0000.17,19.1,25.1,16.0,11.0,0688.0,31.1
2021-07-28T07:56:00Z,00000200,00000000,0002.73,0001.91,0000.87,0001.08,0000.10,0000.17,0000.23,0000.37,0000.07,19.1,25.1,15.9,11.0,0688.0,31.1
2021-07-28T07:57:00Z,00000200,40000000,,,,,,,-000.15,-000.26,-000.35,19.1,25.2,15.5,10.7,0688.0,31.1
2021-07-28T07:58:00Z,00000200,60000000,,,,,,,-000.12,-000.03,0000.13,18.9,25.3,16.0,10.8,0687.0,31.1
2021-07-28T07:59:00Z,00000200,20000000,,,,,,,-000.03,-000.06,0000.19,18.9,25.4,15.9,10.7,0687.0,31.1
